Tracking 28518 objects as of 2-Mar-2024
HD Live streaming from Space Station
objects crossing your sky now

OBJECT K

Track OBJECT K now!
10-day predictions


NORAD ID: 58265
Int'l Code: 2023-174K
Perigee: 522.0 km
Apogee: 534.8 km
Inclination: 97.5 °
Period: 95.1 minutes
Semi major axis: 6899 km
RCS: Unknown
Launch date: November 11, 2023
Source: (TBD)
Launch site: AIR FORCE WESTERN TEST RANGE (AFWTR)
Your satellite tracking list
Your tracking list is empty




NASA's NSSDC Master Catalog

Two Line Element Set (TLE):
1 58265U 23174K   24061.85375866  .00005341  00000-0  29012-3 0  9994
2 58265  97.4594 137.6910 0009287 261.3861  98.6319 15.14898137 17412
Source of the keplerian elements: AFSPC